Location: Bidwell Hollow
(37.7387°N, 90.1707°W)
Time: 23:29:00
(UTC+00:00)

Altair - Pass Details

Date: 21 May 2026
Orbit: 1501 x 1682 km, 47.2° (Epoch: 6 June)

Event Time Altitude Azimuth Distance (km) Brightness Sun altitude
Exits shadow 06:20:54 13° 116° (ESE) 3,548 9.2 -31.8°
Drops below altitude 10° 06:24:19 10° 95° (E) 3,843 9.6 -31.7°
Sets 06:29:44 0° 72° (ENE) 4,872 10.5 -31.6°
